| time (UTC) | temp F | wind direction | speed MPH | gust MPH | rain 1hr in | rain 24hr in | rain mn in | humidity % | barometer mb |
| 20260506073304 | 75 | 170 | 6.0 | 17.0 | 0.00 | 0.00 | 0.00 | 80 | 1007.8 |
| 20260506071804 | 75 | 174 | 6.0 | 13.0 | 0.00 | 0.00 | 0.00 | 80 | 1007.9 |
| 20260506071304 | 75 | 157 | 9.0 | 14.0 | 0.00 | 0.00 | 0.00 | 80 | 1008.1 |
| 20260506070804 | 75 | 170 | 9.0 | 15.0 | 0.00 | 0.00 | 0.00 | 81 | 1008.1 |
| 20260506070305 | 75 | 165 | 6.0 | 18.0 | 0.00 | 0.00 | 0.00 | 81 | 1008.1 |
| 20260506061804 | 74 | 160 | 11.0 | 18.0 | 0.00 | 0.00 | 0.00 | 81 | 1007.8 |
| 20260506061304 | 74 | 177 | 9.0 | 15.0 | 0.00 | 0.00 | 0.00 | 81 | 1007.8 |
| 20260506060805 | 74 | 174 | 7.0 | 14.0 | 0.00 | 0.00 | 0.00 | 81 | 1007.9 |
| 20260506050805 | 75 | 165 | 7.0 | 17.0 | 0.00 | 0.00 | 0.00 | 81 | 1007.9 |
| 20260506050305 | 75 | 160 | 13.0 | 17.0 | 0.00 | 0.00 | 0.00 | 81 | 1007.8 |
| 20260506044804 | 75 | 166 | 12.0 | 21.0 | 0.00 | 0.00 | 0.00 | 81 | 1007.8 |
| 20260506043804 | 75 | 160 | 9.0 | 18.0 | 0.00 | 0.00 | 0.00 | 80 | 1007.8 |
| 20260506043305 | 75 | 165 | 10.0 | 16.0 | 0.00 | 0.00 | 0.00 | 80 | 1007.7 |
| 20260506041804 | 75 | 166 | 11.0 | 17.0 | 0.00 | 0.00 | 0.00 | 80 | 1007.7 |
| 20260506041304 | 75 | 157 | 10.0 | 15.0 | 0.00 | 0.00 | 0.00 | 80 | 1007.7 |
| 20260506040304 | 76 | 166 | 8.0 | 20.0 | 0.00 | 0.00 | 0.00 | 79 | 1007.7 |
| 20260506034805 | 76 | 160 | 11.0 | 17.0 | 0.00 | 0.00 | 0.00 | 79 | 1007.5 |
| 20260506034305 | 76 | 158 | 12.0 | 18.0 | 0.00 | 0.00 | 0.00 | 78 | 1007.3 |
| 20260506033804 | 76 | 157 | 10.0 | 15.0 | 0.00 | 0.00 | 0.00 | 78 | 1007.2 |
| 20260506033304 | 76 | 161 | 11.0 | 18.0 | 0.00 | 0.00 | 0.00 | 78 | 1007.1 |
| 20260506031304 | 77 | 161 | 12.0 | 17.0 | 0.00 | 0.00 | 0.00 | 77 | 1007.0 |
| 20260506030804 | 77 | 157 | 9.0 | 14.0 | 0.00 | 0.00 | 0.00 | 77 | 1007.0 |
| 20260506030304 | 77 | 156 | 10.0 | 15.0 | 0.00 | 0.00 | 0.00 | 76 | 1006.8 |
| 20260506024304 | 77 | 157 | 9.0 | 14.0 | 0.00 | 0.00 | 0.00 | 76 | 1006.6 |
| 20260506023804 | 77 | 154 | 9.0 | 15.0 | 0.00 | 0.00 | 0.00 | 75 | 1006.5 |
| 20260506023304 | 77 | 156 | 9.0 | 16.0 | 0.00 | 0.00 | 0.00 | 75 | 1006.3 |
| 20260506021804 | 77 | 158 | 9.0 | 13.0 | 0.00 | 0.00 | 0.00 | 75 | 1006.1 |
| 20260506021304 | 77 | 160 | 9.0 | 14.0 | 0.00 | 0.00 | 0.00 | 75 | 1006.1 |
| 20260506020304 | 78 | 154 | 7.0 | 13.0 | 0.00 | 0.00 | 0.00 | 74 | 1006.0 |
| 20260506014804 | 78 | 159 | 9.0 | 13.0 | 0.00 | 0.00 | 0.00 | 73 | 1005.7 |
| 20260506014304 | 78 | 156 | 9.0 | 13.0 | 0.00 | 0.00 | 0.00 | 73 | 1005.5 |
| 20260506013804 | 78 | 159 | 10.0 | 13.0 | 0.00 | 0.00 | 0.00 | 72 | 1005.5 |
| 20260506013304 | 79 | 160 | 9.0 | 14.0 | 0.00 | 0.00 | 0.00 | 72 | 1005.5 |
| 20260506011804 | 79 | 156 | 10.0 | 14.0 | 0.00 | 0.00 | 0.00 | 71 | 1005.5 |
| 20260506011304 | 79 | 159 | 9.0 | 14.0 | 0.00 | 0.00 | 0.00 | 71 | 1005.5 |
| 20260506010805 | 79 | 154 | 9.0 | 14.0 | 0.00 | 0.00 | 0.00 | 71 | 1005.4 |
| 20260506004805 | 81 | 160 | 8.0 | 13.0 | 0.00 | 0.00 | 0.00 | 69 | 1005.5 |
| 20260506004304 | 81 | 170 | 10.0 | 15.0 | 0.00 | 0.00 | 0.00 | 68 | 1005.5 |
| 20260506003805 | 81 | 161 | 7.0 | 12.0 | 0.00 | 0.00 | 0.00 | 68 | 1005.5 |
| 20260506001804 | 81 | 169 | 9.0 | 14.0 | 0.00 | 0.00 | 0.00 | 67 | 1005.5 |
| 20260506001304 | 82 | 168 | 6.0 | 10.0 | 0.00 | 0.00 | 0.00 | 67 | 1005.6 |
| 20260506000305 | 82 | 159 | 7.0 | 14.0 | 0.00 | 0.00 | 0.00 | 66 | 1005.5 |
| 20260505234304 | 82 | 169 | 8.0 | 16.0 | 0.00 | 0.00 | 0.00 | 65 | 1005.4 |
| 20260505233304 | 83 | 174 | 9.0 | 17.0 | 0.00 | 0.00 | 0.00 | 64 | 1005.3 |
| 20260505231804 | 83 | 168 | 10.0 | 17.0 | 0.00 | 0.00 | 0.00 | 64 | 1005.0 |
| 20260505231304 | 83 | 163 | 13.0 | 17.0 | 0.00 | 0.00 | 0.00 | 64 | 1005.1 |
| 20260505230804 | 83 | 166 | 12.0 | 20.0 | 0.00 | 0.00 | 0.00 | 64 | 1005.1 |
| 20260505230304 | 83 | 171 | 10.0 | 20.0 | 0.00 | 0.00 | 0.00 | 64 | 1005.0 |
| 20260505224805 | 83 | 170 | 7.0 | 15.0 | 0.00 | 0.00 | 0.00 | 63 | 1005.1 |
| 20260505224304 | 83 | 171 | 9.0 | 18.0 | 0.00 | 0.00 | 0.00 | 63 | 1005.1 |
| 20260505223804 | 84 | 167 | 9.0 | 15.0 | 0.00 | 0.00 | 0.00 | 63 | 1005.0 |
| 20260505223304 | 84 | 180 | 7.0 | 16.0 | 0.00 | 0.00 | 0.00 | 62 | 1005.1 |
| 20260505221805 | 84 | 162 | 12.0 | 21.0 | 0.00 | 0.00 | 0.00 | 62 | 1004.9 |
| 20260505221304 | 84 | 168 | 11.0 | 18.0 | 0.00 | 0.00 | 0.00 | 61 | 1004.9 |
| 20260505220804 | 84 | 164 | 10.0 | 18.0 | 0.00 | 0.00 | 0.00 | 61 | 1004.9 |
| 20260505220304 | 84 | 163 | 9.0 | 17.0 | 0.00 | 0.00 | 0.00 | 61 | 1005.1 |
| 20260505214804 | 85 | 184 | 6.0 | 13.0 | 0.00 | 0.00 | 0.00 | 59 | 1005.1 |
| 20260505214304 | 85 | 181 | 10.0 | 17.0 | 0.00 | 0.00 | 0.00 | 58 | 1005.2 |
| 20260505213804 | 85 | 163 | 10.0 | 17.0 | 0.00 | 0.00 | 0.00 | 59 | 1005.3 |
| 20260505213304 | 85 | 167 | 9.0 | 21.0 | 0.00 | 0.00 | 0.00 | 59 | 1005.4 |
| 20260505211804 | 86 | 184 | 6.0 | 14.0 | 0.00 | 0.00 | 0.00 | 60 | 1005.4 |
| 20260505211304 | 85 | 177 | 10.0 | 21.0 | 0.00 | 0.00 | 0.00 | 59 | 1005.5 |
| 20260505210304 | 85 | 174 | 11.0 | 23.0 | 0.00 | 0.00 | 0.00 | 60 | 1005.7 |
| 20260505204804 | 84 | 169 | 8.0 | 17.0 | 0.00 | 0.00 | 0.00 | 61 | 1005.7 |
| 20260505204304 | 85 | 173 | 10.0 | 18.0 | 0.00 | 0.00 | 0.00 | 60 | 1005.8 |
| 20260505203304 | 84 | 159 | 13.0 | 23.0 | 0.00 | 0.00 | 0.00 | 61 | 1005.8 |
| 20260505201804 | 84 | 184 | 10.0 | 18.0 | 0.00 | 0.00 | 0.00 | 61 | 1006.2 |
| 20260505201304 | 84 | 167 | 10.0 | 18.0 | 0.00 | 0.00 | 0.00 | 60 | 1006.3 |
| 20260505200804 | 85 | 187 | 9.0 | 16.0 | 0.00 | 0.00 | 0.00 | 61 | 1006.5 |
| 20260505200305 | 84 | 154 | 11.0 | 21.0 | 0.00 | 0.00 | 0.00 | 61 | 1006.5 |
| 20260505194804 | 84 | 175 | 9.0 | 17.0 | 0.00 | 0.00 | 0.00 | 62 | 1006.7 |
| 20260505194304 | 84 | 182 | 9.0 | 17.0 | 0.00 | 0.00 | 0.00 | 62 | 1006.7 |
| 20260505193805 | 84 | 171 | 9.0 | 15.0 | 0.00 | 0.00 | 0.00 | 61 | 1006.8 |
| 20260505193304 | 84 | 165 | 7.0 | 18.0 | 0.00 | 0.00 | 0.00 | 62 | 1007.0 |
| 20260505191804 | 83 | 155 | 9.0 | 15.0 | 0.00 | 0.00 | 0.00 | 61 | 1007.1 |
| 20260505191304 | 84 | 159 | 5.0 | 9.0 | 0.00 | 0.00 | 0.00 | 62 | 1007.1 |
| 20260505190804 | 84 | 175 | 5.0 | 10.0 | 0.00 | 0.00 | 0.00 | 63 | 1007.2 |
| 20260505184804 | 82 | 209 | 5.0 | 9.0 | 0.00 | 0.00 | 0.00 | 64 | 1007.4 |
| 20260505184304 | 82 | 233 | 6.0 | 13.0 | 0.00 | 0.00 | 0.00 | 66 | 1007.5 |
| 20260505183804 | 81 | 223 | 6.0 | 10.0 | 0.00 | 0.00 | 0.00 | 65 | 1007.6 |
| 20260505183304 | 81 | 192 | 6.0 | 14.0 | 0.00 | 0.00 | 0.00 | 66 | 1007.6 |
| 20260505181804 | 80 | 164 | 10.0 | 14.0 | 0.00 | 0.00 | 0.00 | 67 | 1007.9 |
| 20260505181304 | 79 | 198 | 6.0 | 12.0 | 0.00 | 0.00 | 0.00 | 68 | 1008.0 |
| 20260505180804 | 79 | 206 | 5.0 | 9.0 | 0.00 | 0.00 | 0.00 | 70 | 1008.1 |
| 20260505180305 | 78 | 164 | 6.0 | 9.0 | 0.00 | 0.00 | 0.00 | 70 | 1008.1 |
| 20260505174804 | 77 | 196 | 7.0 | 12.0 | 0.00 | 0.00 | 0.00 | 72 | 1008.4 |
| 20260505174304 | 77 | 175 | 7.0 | 13.0 | 0.00 | 0.00 | 0.00 | 72 | 1008.4 |
| 20260505173804 | 77 | 169 | 6.0 | 14.0 | 0.00 | 0.00 | 0.00 | 72 | 1008.4 |
| 20260505173304 | 76 | 194 | 6.0 | 13.0 | 0.00 | 0.00 | 0.00 | 73 | 1008.5 |
| 20260505171804 | 75 | 197 | 5.0 | 12.0 | 0.00 | 0.00 | 0.00 | 75 | 1008.6 |
| 20260505170804 | 74 | 165 | 5.0 | 13.0 | 0.00 | 0.00 | 0.00 | 77 | 1008.7 |
| 20260505170304 | 74 | 178 | 5.0 | 14.0 | 0.00 | 0.00 | 0.00 | 77 | 1008.7 |
| 20260505164804 | 73 | 185 | 3.0 | 8.0 | 0.00 | 0.00 | 0.00 | 78 | 1008.7 |
| 20260505163804 | 73 | 165 | 6.0 | 12.0 | 0.00 | 0.00 | 0.00 | 78 | 1008.7 |
| 20260505161804 | 73 | 193 | 7.0 | 14.0 | 0.00 | 0.00 | 0.00 | 78 | 1008.5 |
| 20260505160804 | 72 | 173 | 7.0 | 14.0 | 0.00 | 0.00 | 0.00 | 79 | 1008.5 |
| 20260505160304 | 72 | 169 | 5.0 | 13.0 | 0.00 | 0.00 | 0.00 | 80 | 1008.6 |
| 20260505153304 | 71 | 170 | 4.0 | 9.0 | 0.00 | 0.00 | 0.00 | 80 | 1008.8 |
| 20260505151804 | 71 | 158 | 4.0 | 6.0 | 0.00 | 0.00 | 0.00 | 80 | 1008.8 |
| 20260505151304 | 71 | 180 | 6.0 | 8.0 | 0.00 | 0.00 | 0.00 | 80 | 1008.7 |
| 20260505150805 | 71 | 178 | 6.0 | 10.0 | 0.00 | 0.00 | 0.00 | 80 | 1008.6 |
| 20260505150304 | 71 | 185 | 7.0 | 16.0 | 0.00 | 0.00 | 0.00 | 80 | 1008.6 |
| 20260505140304 | 70 | 175 | 6.0 | 12.0 | 0.00 | 0.00 | 0.00 | 81 | 1008.3 |
| 20260505130304 | 70 | 173 | 6.0 | 14.0 | 0.00 | 0.00 | 0.00 | 81 | 1007.8 |
| 20260505124804 | 70 | 174 | 6.0 | 9.0 | 0.00 | 0.00 | 0.00 | 81 | 1007.6 |
| 20260505124304 | 70 | 165 | 6.0 | 12.0 | 0.00 | 0.00 | 0.00 | 81 | 1007.6 |
| 20260505123804 | 70 | 177 | 6.0 | 13.0 | 0.00 | 0.00 | 0.00 | 81 | 1007.5 |
| 20260505121804 | 70 | 196 | 8.0 | 13.0 | 0.00 | 0.00 | 0.00 | 81 | 1007.2 |
| 20260505121304 | 70 | 179 | 6.0 | 12.0 | 0.00 | 0.00 | 0.00 | 81 | 1007.0 |
| 20260505120804 | 70 | 185 | 7.0 | 15.0 | 0.00 | 0.00 | 0.00 | 81 | 1006.9 |
| 20260505120305 | 70 | 185 | 5.0 | 14.0 | 0.00 | 0.00 | 0.00 | 81 | 1006.9 |
| 20260505114804 | 70 | 180 | 6.0 | 12.0 | 0.00 | 0.00 | 0.00 | 81 | 1006.7 |
| 20260505113804 | 70 | 183 | 5.0 | 8.0 | 0.00 | 0.00 | 0.00 | 81 | 1006.8 |
| 20260505113304 | 70 | 177 | 6.0 | 16.0 | 0.00 | 0.00 | 0.00 | 81 | 1006.8 |
| 20260505111804 | 70 | 164 | 7.0 | 14.0 | 0.00 | 0.00 | 0.00 | 81 | 1007.0 |
| 20260505111304 | 70 | 181 | 6.0 | 15.0 | 0.00 | 0.00 | 0.00 | 81 | 1006.7 |
| 20260505110804 | 70 | 176 | 6.0 | 10.0 | 0.00 | 0.00 | 0.00 | 81 | 1006.7 |
| 20260505110304 | 70 | 170 | 7.0 | 14.0 | 0.00 | 0.00 | 0.00 | 81 | 1006.8 |
| 20260505101804 | 70 | 180 | 7.0 | 14.0 | 0.00 | 0.00 | 0.00 | 80 | 1007.1 |
| 20260505101304 | 70 | 177 | 5.0 | 13.0 | 0.00 | 0.00 | 0.00 | 80 | 1007.0 |
| 20260505100304 | 70 | 179 | 5.0 | 14.0 | 0.00 | 0.00 | 0.00 | 80 | 1007.2 |
| 20260505094804 | 70 | 173 | 4.0 | 10.0 | 0.00 | 0.00 | 0.00 | 80 | 1007.3 |
| 20260505094304 | 70 | 185 | 6.0 | 12.0 | 0.00 | 0.00 | 0.00 | 80 | 1007.1 |
| 20260505093804 | 70 | 182 | 6.0 | 12.0 | 0.00 | 0.00 | 0.00 | 80 | 1007.1 |
| 20260505093304 | 70 | 172 | 7.0 | 23.0 | 0.00 | 0.00 | 0.00 | 80 | 1007.1 |
| 20260505091304 | 70 | 169 | 5.0 | 15.0 | 0.00 | 0.00 | 0.00 | 80 | 1007.4 |
| 20260505090804 | 70 | 173 | 7.0 | 15.0 | 0.00 | 0.00 | 0.00 | 80 | 1007.2 |
| 20260505090304 | 70 | 165 | 7.0 | 14.0 | 0.00 | 0.00 | 0.00 | 80 | 1007.3 |
| 20260505084804 | 70 | 172 | 5.0 | 12.0 | 0.00 | 0.00 | 0.00 | 80 | 1007.7 |
| 20260505084303 | 70 | 181 | 7.0 | 12.0 | 0.00 | 0.00 | 0.00 | 80 | 1007.6 |
| 20260505083804 | 70 | 166 | 8.0 | 20.0 | 0.00 | 0.00 | 0.00 | 80 | 1007.5 |
| 20260505081804 | 70 | 184 | 7.0 | 14.0 | 0.00 | 0.00 | 0.00 | 79 | 1007.6 |
| 20260505081304 | 70 | 175 | 9.0 | 20.0 | 0.00 | 0.00 | 0.00 | 79 | 1007.7 |
| 20260505080804 | 70 | 179 | 9.0 | 17.0 | 0.00 | 0.00 | 0.00 | 79 | 1007.7 |
| 20260505080304 | 70 | 174 | 11.0 | 18.0 | 0.00 | 0.00 | 0.00 | 79 | 1007.7 |